Wind_Speed
53 53 53 54 54 54 54 54 54 54 54 53 53 53 53 53 53 52 51 50 50 49 48 48 47 46 45 43 43 42 41 40 40 39 37 37 35 34 32 31 30 28 26 24 22 20 18 18 16 15 14 13 13 13 13 15 14 14 13 11 12 13 13 13 13 12 14 14 13 12 15 17 19 19 17 18 18 19 21 20 18 15 14 14 12 12 12 14
53 53 53 53 53 53 53 53 53 53 53 53 53 53 53 53 52 52 50 50 49 49 48 47 46 45 43 42 41 40 40 39 38 37 36 35 34 32 31 30 29 27 25 23 22 19 18 18 17 16 13 11 12 12 11 13 15 14 11 10 13 14 14 14 13 13 15 14 13 13 15 17 18 18 17 18 18 19 21 20 18 16 15 16 15 13 12 13
53 52 53 53 53 53 53 53 53 53 53 53 53 53 52 52 52 52 50 50 49 48 47 46 45 44 43 41 40 39 38 37 37 36 35 34 32 30 29 28 27 26 24 22 21 19 18 18 17 16 11 9 12 11 11 13 14 13 10 11 13 14 14 13 12 13 14 15 14 14 16 17 17 18 17 18 19 20 22 22 20 17 15 16 16 15 13 12
54 54 54 54 54 54 54 54 54 54 54 54 53 53 53 53 52 52 51 50 49 48 47 46 45 44 42 41 39 38 37 36 36 34 33 33 31 29 28 27 26 25 23 21 19 18 18 17 16 15 10 11 14 11 12 13 12 11 10 12 13 13 13 12 12 12 13 14 14 15 18 18 18 19 18 18 20 20 22 23 20 17 17 17 17 15 11 8
55 55 55 55 55 55 55 55 55 54 54 54 54 54 53 53 53 52 51 50 49 48 47 46 45 44 42 41 39 38 36 35 34 33 32 31 30 28 27 26 25 24 22 20 19 18 17 17 17 16 13 14 15 11 13 13 10 10 9 11 12 12 12 12 12 11 12 13 14 16 19 19 19 20 19 19 19 20 22 23 20 19 18 17 15 11 8 6
55 55 54 55 54 54 54 54 54 54 54 54 53 53 53 53 52 52 51 50 49 48 47 46 45 44 42 41 39 38 36 35 34 32 31 30 28 27 26 25 24 23 21 19 17 17 18 18 18 17 17 18 17 13 12 11 9 10 9 10 11 13 13 13 12 11 12 13 13 16 19 19 19 20 19 19 20 19 21 22 21 21 19 17 13 9 7 6
53 53 53 53 53 53 53 53 53 53 53 53 52 52 52 52 52 51 51 50 49 48 47 46 45 44 43 41 40 38 36 35 34 32 30 29 28 27 26 25 24 22 21 18 17 18 18 19 18 18 20 21 19 15 12 10 9 9 9 9 9 12 15 14 13 13 13 13 13 15 18 19 20 20 19 20 21 20 20 21 22 23 20 16 13 9 7 6
51 51 51 51 51 51 51 51 51 51 51 51 51 51 51 51 51 51 50 50 49 48 47 46 45 44 43 42 40 38 37 36 35 33 31 29 28 27 26 25 23 22 20 18 17 18 18 19 20 20 22 20 17 15 12 9 10 9 7 5 7 12 16 14 13 14 15 14 14 16 19 20 20 21 20 20 20 21 21 22 23 22 18 16 13 9 6 6
49 50 50 50 50 50 50 50 50 50 50 50 50 50 50 50 50 51 50 49 49 48 47 46 45 44 43 43 41 39 38 36 35 34 32 31 29 28 26 25 23 22 20 18 17 18 18 20 20 21 22 19 13 14 14 11 10 9 8 9 12 16 18 14 12 15 16 15 15 17 20 21 21 20 20 19 19 20 20 22 24 21 18 17 12 8 6 7
50 50 50 50 49 49 49 49 49 49 49 49 49 49 49 49 49 50 50 49 48 48 47 45 45 44 43 43 41 41 39 37 36 35 33 32 31 29 28 26 24 23 21 19 18 18 19 20 22 23 23 18 12 12 13 11 12 12 12 16 19 20 20 15 13 15 18 18 17 18 21 21 21 21 20 20 21 20 18 21 24 20 18 16 11 7 6 7
50 50 49 49 49 48 48 48 48 48 47 47 47 48 47 47 48 48 48 48 48 48 46 45 45 43 43 42 42 42 40 37 36 35 34 34 32 30 29 27 25 23 20 20 20 19 20 22 25 26 23 19 12 10 11 11 15 16 16 19 21 23 22 15 13 17 19 19 18 19 21 20 20 21 22 22 22 19 17 21 23 18 18 16 10 7 6 8
49 49 48 48 47 47 47 46 46 46 45 45 45 45 45 45 46 47 47 47 47 47 46 45 44 43 43 42 43 43 40 38 37 36 35 35 34 32 31 28 26 24 21 21 21 21 22 23 27 27 24 20 11 10 15 16 18 19 19 20 21 23 23 17 15 19 20 18 19 19 20 19 19 19 20 20 19 16 16 22 22 19 19 17 11 8 7 10
47 47 46 46 45 45 44 44 44 43 42 42 42 42 42 43 44 45 46 46 47 47 45 44 43 43 42 42 43 42 40 40 38 36 36 36 35 33 31 29 28 25 22 23 22 22 22 23 28 30 26 19 10 13 21 20 20 20 22 23 22 22 23 21 19 19 20 18 18 19 19 18 19 18 17 16 16 15 18 22 22 21 21 18 12 9 10 12
44 44 43 43 42 41 41 41 40 38 38 38 38 39 40 41 42 43 44 45 46 46 45 43 42 42 42 43 42 40 40 40 38 37 37 36 35 34 32 31 29 26 24 24 23 23 24 27 31 33 31 20 12 19 21 20 21 21 24 25 23 21 18 21 24 21 20 18 17 18 18 18 16 15 14 15 16 18 20 21 21 20 20 17 14 11 13 15
41 40 40 39 38 38 37 37 36 35 34 34 35 36 37 40 41 43 44 44 45 44 44 42 41 41 41 42 41 39 41 41 38 38 37 36 35 34 33 32 30 28 25 24 25 25 27 30 32 33 34 26 21 25 22 19 22 23 26 25 23 20 15 19 24 21 19 18 17 19 18 16 14 13 13 15 17 20 22 22 20 18 18 19 18 17 16 17
37 37 36 35 35 34 34 33 32 31 31 31 32 33 35 38 40 42 43 44 45 44 43 41 41 39 39 41 40 39 40 39 38 38 37 37 36 35 34 34 32 29 25 25 26 26 27 29 30 31 34 33 30 30 24 21 21 22 25 24 23 22 18 20 22 21 20 18 19 22 18 14 14 15 16 17 17 19 22 23 20 18 20 21 20 20 19 18
34 33 33 32 32 31 31 30 30 29 29 29 29 31 33 36 39 41 42 44 44 44 43 42 40 38 39 40 37 35 36 37 38 38 37 37 36 35 35 35 32 29 26 27 27 26 26 27 30 31 33 35 36 35 27 22 21 20 21 23 24 23 20 21 23 22 21 19 24 23 15 12 14 16 17 18 17 17 19 20 20 21 24 24 21 22 21 18
31 31 30 30 30 30 29 29 28 28 28 27 27 29 32 34 38 39 40 41 42 44 44 42 40 38 38 36 33 32 34 36 37 37 37 36 36 36 36 35 32 29 27 27 25 25 26 27 30 32 33 35 39 38 31 25 22 19 19 21 23 21 20 20 23 24 22 22 28 22 10 10 13 15 16 17 17 15 17 19 20 22 25 25 23 22 20 17
30 29 29 29 29 28 28 27 27 27 27 26 27 28 31 33 36 37 37 38 40 42 41 41 41 37 36 35 33 33 36 36 36 36 36 35 35 36 36 35 32 29 26 24 23 25 27 29 31 32 31 33 38 38 32 26 23 22 21 22 22 19 18 21 22 24 24 26 29 23 14 12 12 14 15 16 17 16 18 20 20 23 24 22 22 20 19 17
29 29 28 28 28 27 28 27 27 27 26 26 27 28 30 32 33 35 35 36 37 38 39 42 42 38 37 36 33 35 37 34 33 34 35 35 35 35 36 34 31 28 25 24 24 26 28 30 31 32 31 32 36 38 34 29 24 23 23 23 21 18 18 22 24 24 24 29 32 27 22 19 16 14 15 14 19 22 24 25 23 24 22 19 19 19 19 18
28 28 28 28 28 28 28 28 27 27 27 27 27 29 30 31 32 33 33 34 34 35 39 42 41 37 37 34 34 38 35 30 31 34 34 34 34 35 36 33 30 27 24 24 26 28 30 30 32 34 34 33 35 36 36 33 27 22 23 23 21 20 20 22 26 26 24 29 35 32 28 24 21 18 19 20 26 27 26 27 24 22 19 18 18 18 19 18
28 28 28 28 28 29 29 29 28 28 28 28 28 29 29 30 31 31 30 31 32 34 38 39 38 37 37 37 39 37 32 31 33 34 34 34 34 35 35 31 29 28 25 27 29 29 30 31 33 35 35 34 34 35 35 35 32 26 25 26 23 22 22 20 25 29 26 29 36 37 34 29 26 22 22 24 28 27 25 25 23 19 16 16 17 18 19 19
28 29 29 29 29 30 30 30 30 29 30 30 29 29 29 29 30 28 28 29 30 32 35 36 37 38 39 40 38 34 32 33 34 34 34 34 34 34 33 30 30 29 27 30 31 30 31 31 33 35 35 36 35 35 36 37 38 32 27 28 25 23 23 21 25 31 29 29 36 42 39 34 31 28 25 23 23 23 21 19 22 21 18 19 20 22 22 23
30 30 30 31 31 31 31 30 30 30 31 30 30 29 29 28 28 26 26 27 28 30 32 34 36 37 40 39 36 34 35 35 35 35 35 34 34 33 32 31 30 29 28 30 30 31 33 33 34 35 37 39 38 36 37 40 42 37 30 30 29 26 25 23 25 29 29 29 37 43 43 39 35 31 29 26 24 24 18 15 21 23 22 25 26 27 28 26
32 32 32 32 32 32 32 32 31 32 32 31 30 30 29 28 27 25 24 24 26 28 30 31 34 37 39 38 36 37 37 36 36 36 35 35 35 33 33 32 30 30 29 30 30 30 33 34 35 37 38 40 39 37 36 40 42 38 33 32 32 29 26 24 26 29 27 28 35 40 42 41 38 33 30 29 29 29 26 25 26 26 28 31 31 33 33 30
33 33 33 34 34 34 34 34 33 33 33 32 31 30 29 28 26 24 21 21 23 25 26 29 32 35 37 37 38 37 35 35 36 36 36 36 34 34 34 31 30 30 30 31 30 29 32 35 37 39 40 40 39 38 37 39 40 38 37 36 35 32 29 27 27 29 28 25 30 36 39 39 38 36 33 31 32 32 33 32 30 29 31 33 34 36 35 32
36 36 35 36 36 36 36 36 36 35 35 33 32 31 29 28 26 23 20 19 21 23 25 28 30 33 36 37 36 35 35 35 35 35 37 36 34 34 33 31 31 31 31 30 30 31 34 38 39 40 42 41 41 40 39 40 39 39 39 38 37 35 33 30 27 27 30 27 27 33 38 39 39 38 37 36 35 34 35 34 31 30 29 28 31 32 32 32
38 38 38 38 38 38 38 38 38 37 36 35 33 32 30 28 26 23 19 17 20 23 25 26 29 31 33 34 35 36 35 34 35 37 39 37 34 34 33 32 32 33 31 30 31 34 35 38 42 42 42 44 44 42 43 42 39 38 39 40 39 37 35 32 29 28 32 32 29 31 37 40 41 42 41 39 38 36 35 35 35 34 29 25 27 27 26 28
40 40 40 40 40 40 40 40 40 39 38 37 35 33 31 29 26 23 19 18 21 23 24 26 27 28 29 31 35 35 34 35 37 38 37 35 34 35 34 33 33 33 32 31 32 34 35 38 42 43 44 45 45 45 46 44 40 39 40 41 41 39 35 34 32 31 34 35 33 31 34 40 42 43 44 43 41 39 37 36 36 38 37 33 32 30 27 27
39 39 40 40 40 41 40 40 40 39 38 37 35 34 32 30 28 24 21 20 21 21 23 26 26 27 28 31 33 33 35 37 38 37 36 35 36 37 36 35 34 33 32 33 34 36 37 37 38 43 46 46 46 47 48 45 42 41 41 41 42 40 37 36 35 33 36 37 34 30 31 37 42 42 43 44 44 42 41 39 37 39 41 40 39 38 33 30
35 35 36 37 37 38 38 38 38 38 37 36 35 34 32 31 29 25 23 23 21 20 23 25 27 27 28 30 30 31 35 37 37 38 38 38 38 38 37 36 35 34 34 35 36 38 38 36 37 42 46 47 47 49 49 47 44 43 41 41 41 40 39 39 38 35 37 39 37 32 30 33 38 39 39 40 41 42 44 44 41 39 40 40 40 38 34 32
30 31 32 32 33 34 35 35 36 36 35 34 34 34 33 32 29 26 26 25 20 19 23 25 27 28 27 27 27 29 32 34 36 39 39 38 39 39 39 38 38 36 36 37 38 38 37 37 38 41 44 47 49 49 50 50 47 43 42 42 41 40 41 43 41 36 35 40 41 38 33 31 34 35 34 32 30 34 40 43 43 41 40 38 35 34 33 33
28 28 28 29 30 31 32 32 33 33 33 33 33 33 33 32 29 28 28 24 21 22 24 24 26 27 26 26 27 28 29 31 35 37 37 38 39 40 40 40 39 37 37 38 38 38 38 39 40 40 41 45 49 49 50 51 48 44 43 43 43 42 42 45 44 38 34 37 42 42 37 35 35 35 37 35 29 27 31 36 37 37 35 32 29 29 29 28
26 26 27 27 28 29 30 31 31 31 32 32 32 32 33 33 31 31 30 27 25 24 22 23 25 25 26 26 26 27 28 30 33 35 35 36 38 40 41 40 39 39 39 38 37 38 38 39 40 40 40 42 47 49 49 49 49 46 44 44 45 44 44 47 47 42 35 33 38 40 40 40 38 35 38 41 36 29 29 31 32 32 31 30 28 27 25 23
25 25 26 27 27 28 29 30 30 30 31 31 31 32 32 33 31 32 32 30 28 24 23 24 25 25 26 25 26 27 27 29 31 31 31 34 36 38 40 40 41 42 40 39 39 39 39 40 41 40 39 40 44 47 47 48 49 47 44 44 46 45 44 48 50 46 39 33 33 36 39 43 42 35 34 39 38 34 33 32 31 31 31 30 30 30 29 29
24 25 26 27 27 28 29 30 30 30 30 30 31 32 32 31 31 33 34 31 28 26 26 26 25 26 26 26 27 28 28 29 29 28 29 31 33 35 36 38 40 41 40 40 41 40 40 43 42 40 41 42 43 45 46 48 49 49 46 44 45 45 45 50 53 48 42 37 34 33 35 39 41 36 32 36 39 40 40 38 34 32 32 31 31 32 33 32
23 24 25 26 27 28 29 30 30 31 31 31 31 31 31 31 32 34 33 32 30 29 28 27 26 27 27 27 29 29 28 28 28 28 29 29 30 31 33 34 36 38 39 40 40 40 42 44 41 40 42 43 43 44 46 49 49 49 47 45 46 48 46 50 54 50 45 42 39 35 34 35 36 34 31 33 37 40 42 43 39 37 38 37 35 34 34 32
22 23 24 24 25 26 28 29 30 31 32 32 31 32 32 33 34 34 34 34 33 31 29 28 28 28 28 30 31 30 29 29 29 28 27 27 28 29 30 31 32 34 35 37 38 39 40 41 38 39 41 42 42 43 45 48 50 49 48 48 49 48 45 48 53 51 47 46 42 37 36 37 37 35 31 29 32 33 36 40 40 39 40 41 40 37 35 33
22 23 23 23 22 23 24 26 28 30 32 32 32 33 33 33 34 34 35 35 34 32 31 30 30 31 31 32 31 31 31 30 30 28 27 27 26 24 24 25 27 28 29 31 33 34 35 34 31 33 36 37 39 42 43 46 50 51 50 49 49 50 47 48 52 50 46 46 45 39 37 38 38 38 35 30 28 28 29 32 35 35 37 39 39 38 36 34
23 23 23 23 22 21 21 22 24 28 30 31 32 33 33 34 35 35 35 35 35 35 33 32 32 32 31 32 32 33 32 31 30 29 28 27 24 23 23 24 25 25 25 27 28 28 29 28 27 29 30 31 35 41 44 47 49 51 51 49 50 51 48 48 52 51 46 45 45 42 39 38 38 39 39 36 33 31 29 28 29 29 31 33 34 34 34 33
25 25 24 23 22 21 19 18 20 23 27 30 31 32 33 35 35 36 37 36 36 36 35 33 32 32 32 33 33 34 33 33 33 31 29 29 28 28 28 27 27 27 26 26 25 25 27 27 26 27 26 27 32 38 43 48 49 51 53 52 51 52 48 48 52 52 49 46 46 43 39 39 41 42 41 40 39 37 35 33 32 31 30 29 29 29 30 29
27 27 25 24 23 22 19 17 17 19 22 26 29 31 33 34 36 37 38 37 37 37 36 35 33 33 33 32 32 34 34 35 35 33 32 33 33 32 29 27 29 28 27 27 27 27 28 28 27 26 26 28 32 34 40 47 49 51 54 54 54 54 50 49 51 51 50 49 49 46 39 38 42 42 41 42 40 38 38 38 39 39 39 36 34 33 31 32
28 28 27 25 24 23 21 18 16 16 18 22 26 29 31 33 36 37 38 38 38 37 37 36 36 34 33 32 33 34 35 37 36 36 36 36 36 33 30 30 32 32 31 32 31 30 31 31 29 28 29 30 31 32 35 40 46 50 52 54 55 55 52 52 53 51 50 48 48 47 41 37 41 42 41 42 40 37 36 37 41 43 42 40 39 39 39 39
29 29 28 27 25 24 22 19 16 15 15 17 21 25 29 32 34 36 38 39 39 38 38 38 37 35 34 33 33 33 35 36 37 38 38 38 38 35 33 35 37 36 36 36 35 34 35 35 33 31 31 30 32 35 36 37 41 47 50 52 54 56 55 56 56 54 52 49 45 45 42 38 38 40 40 39 38 36 33 34 40 42 40 39 40 40 42 43
28 28 28 27 26 25 23 21 18 14 13 15 18 22 26 29 32 34 37 39 40 39 38 38 37 37 35 33 32 33 34 35 36 38 39 40 40 37 37 40 42 40 40 39 37 37 37 37 34 33 33 33 35 39 38 37 40 45 50 53 55 57 57 58 58 56 54 53 48 42 39 37 37 36 35 34 35 35 33 33 37 37 38 39 38 36 37 38
28 28 28 27 26 25 24 23 20 16 13 14 18 21 24 27 30 33 35 38 39 40 39 38 38 38 36 34 33 33 33 34 35 36 37 38 39 39 41 44 44 42 41 41 40 39 39 39 37 36 36 36 37 38 38 37 40 46 51 55 57 58 58 57 59 58 56 56 52 43 36 35 37 35 32 30 31 33 33 32 31 33 36 37 35 35 35 35
28 28 27 27 26 25 25 23 21 20 17 15 16 19 22 25 28 31 34 36 38 40 40 40 39 38 37 36 34 33 33 34 34 35 36 37 38 39 42 44 43 42 43 43 42 41 42 42 41 40 40 39 38 40 39 39 42 46 51 55 58 60 60 57 58 60 57 55 55 50 42 39 39 37 35 32 32 34 34 31 30 32 34 35 36 37 38 38
29 28 27 27 25 25 24 23 23 22 20 17 15 16 19 23 26 28 31 34 37 39 40 40 39 38 38 37 35 34 34 34 33 33 35 36 36 38 40 40 39 40 42 42 40 40 42 42 41 40 40 40 40 40 41 41 42 44 46 50 56 60 61 59 58 61 58 54 56 57 52 45 41 40 40 36 35 38 37 34 32 32 32 36 38 39 41 43
31 30 28 27 25 23 23 23 23 23 22 20 17 16 17 19 23 27 29 33 36 38 40 41 40 39 39 38 37 36 35 33 32 32 32 33 33 34 35 35 36 37 37 36 35 36 38 38 37 38 39 39 38 38 40 41 41 42 43 47 54 59 61 60 59 61 59 54 55 58 57 53 46 44 44 40 38 41 41 38 35 33 33 35 36 37 39 43
33 31 29 28 26 23 22 23 23 23 23 22 20 18 16 16 20 24 27 31 34 37 40 41 40 40 40 39 38 37 35 33 31 30 31 30 30 30 31 31 32 33 34 33 33 34 35 34 35 36 37 37 36 37 39 39 40 43 45 48 53 57 61 62 60 60 59 55 53 56 58 59 55 50 48 45 42 43 45 43 40 37 33 31 31 35 37 39
33 32 30 29 27 24 22 22 23 23 23 23 22 20 18 16 17 20 25 28 31 36 39 40 41 43 41 40 38 37 35 33 32 31 29 27 27 28 29 29 29 31 32 32 32 33 33 33 34 35 35 35 35 36 38 39 40 43 46 48 52 56 62 64 62 62 61 57 54 56 57 58 59 57 54 52 48 47 47 45 42 40 37 33 33 35 37 38
33 32 30 29 28 26 23 22 22 23 23 23 23 22 20 18 16 17 21 25 29 34 38 41 44 43 42 40 39 38 37 35 33 32 30 28 27 28 28 27 27 29 30 31 32 33 32 33 34 34 34 34 34 36 38 39 40 42 45 47 49 53 60 65 65 65 65 62 58 57 56 55 57 58 57 56 52 49 46 44 42 40 40 40 39 38 38 39
Wind_Direction
261 262 263 263 264 264 265 266 266 267 267 268 268 269 269 270 270 270 271 271 272 272 273 273 274 274 274 275 275 276 276 276 277 277 278 278 278 278 278 278 277 277 275 272 269 263 258 254 247 242 238 241 245 242 248 251 252 256 254 248 238 232 232 227 222 217 222 230 229 228 219 214 219 217 213 221 230 238 239 235 231 229 231 233 228 229 248 262
262 263 264 264 265 265 266 267 267 268 268 269 269 270 270 270 271 271 271 271 271 272 272 273 273 273 273 273 274 274 275 275 275 276 276 276 276 276 275 275 274 273 271 268 265 259 253 247 242 239 230 237 249 241 243 251 253 252 242 234 230 229 228 225 224 221 219 223 224 223 220 216 217 216 210 214 223 232 237 232 227 231 233 229 224 230 247 259
263 264 264 265 266 266 267 268 268 269 269 269 270 270 271 271 271 271 271 271 271 271 271 272 272 272 272 272 272 273 273 274 274 274 274 274 274 274 273 272 271 270 267 263 260 254 248 240 237 234 220 233 245 237 239 244 250 250 236 224 224 227 224 220 222 221 218 220 223 219 217 217 215 214 207 208 218 225 232 232 231 231 227 223 223 230 239 253
263 264 265 265 266 267 267 268 268 269 269 269 270 270 270 270 271 271 271 271 271 270 271 271 271 271 271 271 271 271 272 272 272 272 273 272 272 271 270 269 268 266 263 260 254 248 241 232 233 226 206 223 230 229 243 242 244 246 239 229 222 224 223 222 223 219 219 218 222 220 214 213 211 207 200 203 216 223 227 230 231 227 221 221 226 233 240 256
264 264 265 265 265 266 267 267 267 268 268 268 269 269 269 270 270 270 270 270 270 270 270 270 269 269 269 269 269 270 270 270 271 271 271 271 270 269 268 266 264 263 259 256 251 243 234 227 228 218 200 214 220 221 237 240 240 232 231 237 233 232 231 231 229 223 223 222 224 218 209 207 205 204 201 203 214 223 227 226 226 224 222 225 228 231 245 266
264 264 264 265 265 265 266 266 266 267 267 267 268 268 268 268 268 269 269 269 269 269 269 268 268 268 268 267 267 268 268 268 269 269 269 269 268 267 265 263 261 259 256 252 245 239 232 224 220 211 200 205 210 215 226 230 234 228 225 233 239 240 235 233 234 231 227 225 225 215 205 199 197 204 208 209 213 223 229 227 224 223 227 230 224 225 249 271
263 263 264 264 265 265 265 265 266 266 267 267 267 267 267 267 268 268 268 268 268 268 268 268 267 267 266 266 265 266 266 266 266 266 266 266 266 265 263 261 259 256 253 247 239 234 229 220 212 206 202 203 205 209 217 220 226 234 231 231 245 247 237 237 245 242 230 222 220 213 204 195 195 206 212 212 214 220 225 226 225 222 226 227 219 228 252 276
263 263 264 264 265 265 265 265 265 266 266 266 267 267 267 267 267 267 267 268 268 267 267 267 267 266 266 265 264 264 263 263 263 264 264 263 263 262 261 259 257 254 249 242 234 228 224 216 209 205 204 208 208 206 210 214 220 225 218 229 261 251 234 237 253 248 231 220 216 211 202 196 199 206 213 215 215 220 224 226 223 218 223 224 221 233 255 278
263 264 264 264 265 265 265 265 265 265 266 266 266 267 267 267 267 267 267 267 267 266 266 266 265 265 265 265 264 263 262 261 261 261 261 261 260 260 259 257 255 252 246 239 231 225 220 209 205 206 206 209 210 208 212 216 218 207 194 210 229 233 225 227 248 247 233 222 216 211 202 199 202 204 212 218 215 218 225 225 218 215 223 222 219 235 255 271
264 264 265 265 265 265 265 265 265 265 265 266 266 266 267 267 267 266 266 266 265 265 264 264 263 263 264 263 264 262 261 259 259 260 259 259 258 258 257 256 253 250 244 237 228 223 217 206 203 205 205 209 209 208 214 227 236 218 206 213 217 222 223 225 238 238 232 223 216 213 206 203 201 202 208 213 215 215 221 225 218 221 227 216 212 232 252 272
265 265 265 265 265 265 265 265 264 264 265 265 265 266 266 266 266 266 266 265 264 264 263 262 262 261 261 261 262 261 261 259 258 258 257 257 256 256 255 253 251 248 242 235 227 221 216 209 203 200 204 209 204 208 215 231 244 231 219 218 218 219 216 220 232 228 228 220 213 215 215 211 204 206 209 208 217 220 223 227 222 227 229 214 211 231 257 280
265 265 265 265 265 265 265 264 264 264 265 265 265 266 266 265 265 265 265 264 264 263 262 261 260 259 259 259 259 259 260 258 256 255 255 255 254 253 252 252 250 246 240 232 226 221 217 212 201 195 202 201 187 219 230 230 234 229 224 221 221 219 212 216 227 221 221 218 212 216 220 218 210 211 213 212 223 231 230 229 225 228 223 212 217 235 269 286
264 264 264 264 264 264 264 264 265 265 265 265 265 266 266 266 266 265 265 264 263 262 261 260 259 258 257 257 256 257 257 256 255 254 253 253 252 252 251 250 248 243 238 229 226 223 219 215 203 195 197 192 186 227 232 230 225 220 221 222 220 218 217 223 228 219 216 216 211 214 218 216 212 210 212 219 235 238 230 227 224 224 218 211 217 237 271 283
263 263 263 263 263 263 263 263 263 264 264 264 265 266 267 267 267 266 265 263 262 261 260 259 257 257 256 255 255 255 255 254 254 252 251 251 250 250 249 248 246 242 237 228 225 222 219 217 207 199 196 194 208 222 224 223 218 215 219 224 219 216 225 227 225 220 215 216 209 205 206 205 205 206 212 225 236 235 228 225 221 221 221 220 225 242 268 276
261 261 261 261 261 261 261 261 262 262 262 264 265 267 269 270 269 268 266 264 262 260 259 257 256 255 254 254 254 252 252 251 251 249 248 248 247 247 246 246 244 240 235 230 228 223 218 216 212 207 201 201 209 213 214 215 217 220 222 228 221 214 228 226 223 219 211 213 202 187 185 192 201 205 217 230 235 233 225 218 218 222 225 227 233 244 263 270
259 259 259 259 258 258 258 259 260 260 260 262 265 269 272 273 273 271 267 264 261 258 257 255 253 253 252 252 251 250 250 249 248 247 245 245 244 244 244 244 243 239 233 230 230 222 216 215 215 213 205 205 209 209 213 213 216 223 222 226 224 219 226 223 220 216 207 205 186 174 179 200 215 210 216 228 232 230 220 211 213 217 218 221 233 246 258 264
257 257 256 256 256 256 257 257 257 258 259 263 268 273 277 278 277 273 269 263 259 256 254 253 251 250 249 250 251 250 250 248 246 244 243 242 242 242 242 242 242 239 232 228 226 217 213 213 214 213 206 205 208 209 213 212 211 215 215 219 220 224 228 220 218 213 205 196 179 173 184 208 213 206 214 228 228 224 220 214 212 213 216 222 239 252 255 259
255 255 255 255 255 254 254 255 256 258 261 266 272 277 281 281 279 274 269 263 258 254 251 250 249 248 248 250 251 249 246 243 241 241 240 239 239 239 240 241 240 238 232 227 221 213 210 209 212 213 206 204 206 208 210 207 206 205 210 219 218 224 228 217 215 213 205 191 178 172 182 204 206 207 216 225 217 215 226 222 211 213 221 231 244 250 252 256
254 254 254 253 252 252 253 254 257 260 264 269 274 279 283 284 281 275 269 263 257 252 250 247 246 245 245 245 244 241 240 239 238 238 237 236 236 237 239 239 239 237 232 227 218 211 209 208 211 211 206 204 205 208 205 202 206 204 210 221 219 224 226 214 211 211 205 191 178 172 181 189 195 217 224 221 209 206 226 229 222 225 228 235 241 242 248 253
253 251 250 249 249 251 254 255 258 261 266 270 274 279 283 287 285 277 268 261 256 251 246 243 242 240 241 242 240 239 240 241 239 237 236 234 233 234 237 237 237 234 229 224 213 206 207 208 209 208 205 205 204 204 201 198 200 203 212 217 215 217 217 214 210 205 202 193 181 175 183 173 160 197 213 218 221 217 225 230 230 232 228 229 235 238 248 254
250 249 248 248 249 252 255 257 260 263 267 271 275 279 284 290 290 280 269 262 257 250 243 240 239 237 239 240 237 238 240 239 237 236 235 234 232 233 235 234 234 230 222 220 215 205 205 208 209 205 204 206 204 200 198 198 194 200 214 215 213 210 205 212 210 201 198 196 187 180 184 177 163 184 194 203 222 225 227 231 229 228 226 226 234 243 251 258
249 249 249 250 251 252 254 258 261 264 268 271 274 279 285 292 293 285 272 262 254 246 241 239 236 234 234 234 234 237 237 234 234 234 234 232 230 232 233 232 231 228 217 215 216 209 206 209 208 205 203 202 201 198 197 199 197 202 214 212 208 204 200 207 206 200 198 198 195 189 188 190 188 194 198 205 222 230 234 237 232 227 230 238 247 253 256 263
251 251 251 252 253 254 255 258 260 264 267 271 274 279 285 292 296 290 274 262 252 244 240 237 234 231 232 234 235 236 235 234 234 233 233 232 231 231 232 229 226 226 219 214 213 207 204 209 209 206 202 198 196 197 198 200 202 206 210 206 202 200 201 207 204 200 202 200 199 197 196 199 201 201 204 209 220 228 234 245 242 232 238 255 264 263 264 268
254 254 254 255 255 256 258 260 261 264 267 271 274 278 284 290 297 293 277 263 252 243 237 234 231 230 232 234 234 233 232 232 232 232 233 233 232 231 230 227 223 222 220 217 215 209 205 207 209 207 202 200 196 196 199 202 205 208 206 202 199 196 199 206 204 200 203 203 198 199 201 205 207 207 210 212 213 218 216 222 235 240 250 261 266 267 270 271
257 257 257 258 259 260 262 262 263 266 268 271 274 278 281 287 294 295 283 266 252 242 237 234 231 230 232 233 232 231 230 230 231 232 233 232 232 230 228 225 222 220 219 218 216 214 210 207 209 208 204 203 199 197 202 205 207 208 206 201 196 193 194 200 205 201 200 202 198 199 204 208 212 213 214 216 216 218 214 215 235 253 261 263 267 270 271 269
260 260 261 261 261 262 264 264 265 267 269 271 274 276 279 283 290 294 286 268 253 243 236 233 231 231 233 232 232 232 231 231 232 232 233 233 232 231 228 225 222 219 218 217 214 213 213 210 208 207 205 204 200 198 204 205 206 209 207 201 196 193 193 196 202 202 198 201 201 202 206 210 214 214 213 215 215 217 217 223 239 253 258 261 263 264 263 263
263 263 263 263 263 264 265 266 267 268 270 271 273 274 276 278 283 290 287 269 252 241 234 232 231 231 232 232 232 233 231 231 232 233 235 235 234 233 231 226 221 218 215 213 211 211 212 211 209 207 204 202 199 201 205 203 205 210 206 202 199 196 197 194 192 198 200 201 206 209 210 212 213 213 211 211 211 212 214 221 233 242 249 254 253 253 257 263
266 266 266 265 265 265 266 267 267 269 270 270 271 272 272 274 276 283 284 267 250 240 234 233 232 233 234 233 232 231 230 230 229 230 232 232 233 234 232 227 221 217 214 211 209 209 210 210 210 208 204 200 199 204 207 203 203 208 206 202 199 199 200 194 184 192 201 202 208 211 211 214 216 215 213 211 210 211 214 220 228 234 238 241 245 251 258 265
268 268 268 267 267 267 267 267 267 268 269 269 269 269 268 269 270 273 275 265 254 244 238 236 235 236 235 233 233 231 229 229 229 230 232 232 233 233 231 228 222 217 214 211 209 208 208 209 209 209 207 201 201 205 206 203 203 207 207 203 201 201 201 194 185 191 200 203 208 209 209 215 219 219 217 215 215 216 217 219 222 227 229 234 245 253 254 256
270 270 269 268 268 267 267 266 266 266 266 266 266 265 264 264 263 266 269 265 260 249 241 240 238 237 235 232 232 230 228 229 229 230 231 230 230 231 229 227 223 217 213 210 208 208 208 207 207 209 208 204 204 204 203 202 203 206 205 202 201 203 201 193 187 192 202 205 206 206 207 214 220 222 220 219 220 222 222 221 221 223 227 233 244 253 253 249
274 272 271 269 268 267 266 265 265 264 263 263 262 261 260 258 258 260 258 259 260 252 243 240 238 236 235 235 233 230 228 228 228 227 228 227 228 229 229 227 224 218 212 209 208 208 207 206 207 207 206 207 207 205 202 201 202 204 202 199 199 201 199 193 190 195 205 208 206 206 207 212 219 221 222 223 225 228 228 228 228 227 231 236 242 252 254 246
277 275 273 271 270 268 266 264 263 262 260 259 258 256 255 254 253 251 252 257 260 251 243 240 238 236 236 236 234 232 231 230 228 229 228 227 228 229 228 228 225 220 215 212 209 209 208 208 209 208 205 207 208 205 203 202 202 202 200 198 197 198 196 193 194 199 206 211 213 214 214 217 221 220 219 218 221 227 229 230 233 234 237 241 244 252 255 249
281 278 276 273 271 268 266 264 262 260 258 256 254 252 251 250 248 245 247 252 250 246 245 242 240 238 236 235 234 233 232 229 229 230 229 227 228 229 229 228 227 224 219 216 212 211 211 210 211 209 206 207 207 204 203 202 202 201 200 200 199 198 195 192 196 202 204 208 214 219 223 224 224 224 222 220 222 227 230 230 233 235 237 241 244 250 252 250
284 282 279 276 273 270 267 265 262 259 256 254 251 249 248 246 243 241 242 243 243 246 248 244 241 238 236 235 235 234 232 230 230 231 228 227 227 228 229 229 228 226 223 219 217 216 215 214 214 211 208 208 207 205 203 203 204 202 199 201 200 200 197 193 196 202 202 202 206 212 219 219 218 220 223 227 229 226 224 225 226 228 232 237 240 242 244 249
289 286 282 279 275 271 268 265 262 259 256 253 251 248 246 244 242 240 239 239 242 243 241 241 239 237 236 234 233 234 232 231 232 232 230 229 229 229 229 228 227 227 224 221 220 218 217 218 215 211 209 209 208 207 204 203 204 202 200 202 201 201 200 196 198 202 203 203 202 205 212 213 212 214 218 224 225 221 217 218 220 223 227 230 233 237 243 251
295 292 288 283 278 274 269 266 262 259 256 253 250 247 245 243 241 239 238 238 240 239 239 240 238 235 234 232 232 232 231 231 232 231 230 230 230 230 231 230 229 228 225 222 221 219 219 220 215 210 210 210 208 205 204 203 203 201 200 202 200 200 201 199 200 203 207 209 207 207 213 214 213 215 216 217 220 222 223 226 230 232 234 235 233 234 241 249
304 300 295 289 282 276 271 266 262 259 256 252 249 246 244 241 239 238 237 235 235 235 236 237 236 235 232 230 232 233 231 231 231 229 228 228 228 228 229 229 229 228 225 223 222 221 222 222 217 213 213 211 207 204 204 204 202 200 200 201 200 199 201 202 201 204 209 213 213 214 220 220 216 218 219 215 218 223 227 231 234 234 237 241 240 239 243 250
315 312 306 298 290 281 273 267 262 258 255 251 248 246 242 239 238 236 235 234 233 233 234 234 235 234 231 229 231 231 230 230 230 228 227 227 227 226 225 225 224 225 223 222 221 221 224 225 221 219 217 212 209 207 205 204 202 200 200 202 200 198 201 204 203 204 210 216 218 221 227 226 221 220 219 216 218 221 224 227 229 230 232 235 238 240 243 250
324 323 320 313 304 292 280 270 262 257 254 251 248 244 242 239 238 236 234 233 232 232 232 232 232 231 230 230 230 230 230 230 230 227 224 224 224 223 222 221 220 220 217 217 217 216 221 222 219 220 219 214 211 209 208 206 203 202 202 202 200 197 200 204 202 204 209 215 218 221 226 229 227 224 222 219 221 222 221 221 221 224 227 229 232 235 240 245
334 332 331 327 321 310 295 279 266 258 253 250 247 244 242 240 237 235 234 233 231 230 230 230 231 231 231 231 231 230 230 229 229 226 223 222 220 216 213 210 212 213 209 210 210 210 215 215 211 215 214 209 210 210 209 208 206 205 205 204 201 200 202 203 202 203 207 212 215 218 224 229 230 229 227 225 226 227 226 224 221 223 227 228 229 233 237 238
341 339 338 337 333 325 312 295 277 263 254 249 246 243 241 239 237 235 234 232 231 230 230 230 231 231 231 231 230 229 228 227 227 225 222 219 215 213 211 207 209 210 207 209 209 209 216 214 209 213 210 205 208 208 208 209 207 206 207 207 204 202 204 203 202 204 207 209 212 214 222 229 230 231 232 230 230 232 233 233 232 232 233 232 233 235 238 236
344 343 342 342 340 336 328 312 292 274 260 252 247 243 241 239 238 236 234 232 231 230 229 229 230 230 230 230 230 230 229 228 227 225 222 220 219 217 214 211 215 215 213 214 214 214 221 219 211 211 210 208 210 209 209 209 208 207 207 207 206 205 205 204 203 204 207 210 212 212 218 229 231 231 233 234 235 237 240 240 240 241 242 242 242 243 245 246
346 344 343 343 343 342 337 327 309 287 269 257 250 245 242 240 238 236 235 233 231 230 229 228 229 230 229 229 229 228 228 228 228 226 223 223 223 220 217 218 220 220 219 219 217 218 223 223 216 214 216 214 213 213 213 211 211 210 208 207 207 206 206 206 204 204 205 208 212 212 216 227 230 229 231 233 234 236 240 243 243 243 243 243 244 244 246 249
345 344 342 342 342 342 342 338 325 303 282 266 256 249 244 242 240 238 236 234 231 230 229 228 228 229 229 229 228 227 227 227 227 227 226 226 226 222 220 223 224 223 222 222 219 219 223 223 219 218 221 219 216 216 213 209 211 213 211 208 207 206 206 206 206 205 204 205 208 210 214 222 227 228 229 231 231 230 233 239 241 241 240 241 243 245 247 250
342 342 340 340 340 340 340 340 334 320 294 274 264 256 249 244 242 239 237 235 233 230 230 229 228 228 229 229 228 228 227 227 227 227 227 228 228 225 224 227 228 227 226 226 224 224 226 226 224 223 226 225 222 219 213 208 208 210 211 209 206 205 206 206 206 206 205 205 205 206 211 220 222 222 223 227 228 225 225 234 241 241 240 241 241 242 245 248
337 338 337 336 336 337 336 336 336 331 312 285 269 261 254 248 244 241 238 236 235 232 230 229 228 228 228 229 229 228 228 227 227 227 227 228 228 226 226 229 230 230 231 232 230 230 231 232 230 229 230 229 226 222 216 211 209 209 210 209 207 206 206 205 206 206 206 206 205 202 206 216 218 215 214 219 224 225 224 230 236 238 239 241 237 231 233 239
332 333 333 332 331 333 334 333 330 329 325 308 284 268 257 250 245 242 240 238 236 234 232 230 228 227 227 228 228 228 227 227 226 225 226 227 227 226 227 230 230 231 233 233 233 233 234 234 233 231 231 230 227 223 218 215 214 214 212 209 207 208 207 206 205 205 206 207 207 204 205 210 212 210 209 212 218 223 225 226 229 231 236 243 238 226 223 228
327 327 327 327 325 326 329 327 322 323 325 320 307 285 265 254 247 244 241 238 236 234 233 232 230 228 227 227 227 228 227 227 226 225 225 226 226 225 227 229 229 229 231 232 231 231 233 233 233 232 231 229 226 223 220 218 218 219 219 215 210 209 209 208 206 205 204 207 210 209 209 210 207 206 207 208 214 220 222 222 223 223 227 237 237 228 222 225
324 322 321 321 318 318 321 321 318 318 319 319 317 304 283 265 251 245 242 240 237 235 234 233 231 230 229 227 227 228 227 227 228 228 227 227 226 226 227 227 226 226 228 227 226 226 227 228 228 227 227 226 225 224 224 223 220 218 219 218 214 212 212 210 209 207 204 207 212 214 215 214 210 206 207 208 214 220 221 221 222 222 222 228 234 232 228 227
321 319 318 316 313 310 311 314 315 314 312 313 315 311 302 282 261 249 244 241 238 236 234 233 232 231 230 228 227 228 227 227 228 228 229 229 228 227 228 226 224 224 224 222 221 222 223 223 222 222 223 223 222 224 226 227 224 219 216 216 214 213 213 212 210 208 204 206 211 215 217 218 216 213 211 210 214 221 224 225 227 227 226 227 237 243 241 237
319 318 316 314 310 307 303 304 308 309 307 306 307 309 307 297 278 259 248 243 239 236 235 233 232 231 230 230 229 228 227 226 225 225 225 227 227 225 226 227 225 224 223 221 220 221 220 220 220 221 221 221 220 222 225 225 223 222 220 217 214 212 212 212 210 207 204 205 209 213 216 219 219 219 218 216 217 223 227 229 230 230 228 227 237 247 250 249
318 317 316 313 310 306 300 295 297 301 302 301 300 300 302 301 292 274 256 246 241 236 233 232 232 232 231 230 230 229 227 225 224 223 222 222 222 221 221 223 225 225 224 221 220 220 220 220 221 221 220 219 219 220 222 223 223 223 222 218 215 212 212 212 211 209 206 205 208 211 213 217 219 219 221 221 220 223 226 227 228 229 229 230 234 242 250 255
Height
10933 10934 10935 10935 10936 10936 10937 10937 10937 10938 10938 10939 10939 10939 10940 10940 10942 10943 10945 10946 10946 10948 10949 10950 10952 10953 10954 10956 10956 10957 10959 10960 10961 10962 10963 10964 10965 10967 10968 10969 10970 10971 10972 10973 10974 10976 10977 10978 10979 10981 10982 10983 10985 10986 10986 10987 10988 10988 10989 10990 10990 10991 10992 10993 10994 10995 10995 10996 10998 11000 11001 11001 11001 11002 11004 11003 11004 11003 11002 11004 11005 11006 11007 11007 11008 11009 11009 11009
10929 10929 10930 10931 10931 10932 10932 10933 10933 10933 10933 10934 10934 10935 10935 10936 10936 10938 10940 10941 10942 10943 10944 10946 10947 10949 10950 10952 10953 10954 10955 10956 10957 10958 10959 10960 10962 10963 10964 10965 10966 10968 10969 10970 10972 10973 10974 10976 10977 10979 10981 10983 10984 10985 10985 10985 10986 10987 10987 10988 10989 10990 10990 10991 10992 10994 10994 10994 10995 10997 10999 10999 10999 11001 11002 11002 11002 11002 11002 11004 11005 11006 11006 11007 11007 11008 11008 11008
10924 10925 10926 10926 10927 10927 10927 10928 10928 10928 10929 10929 10930 10930 10931 10931 10932 10933 10935 10936 10937 10939 10940 10941 10943 10945 10946 10948 10949 10950 10951 10952 10953 10955 10956 10957 10959 10960 10961 10962 10963 10965 10966 10967 10969 10970 10972 10974 10975 10978 10980 10982 10983 10983 10983 10983 10984 10985 10986 10986 10987 10988 10989 10989 10991 10992 10993 10994 10994 10995 10997 10998 10998 10999 11001 11002 11002 11002 11002 11003 11005 11006 11006 11006 11006 11006 11007 11007
10919 10920 10921 10922 10922 10922 10923 10923 10923 10923 10924 10924 10925 10926 10926 10926 10927 10928 10929 10931 10932 10934 10935 10937 10939 10940 10942 10943 10945 10946 10948 10949 10950 10951 10952 10953 10955 10957 10958 10959 10960 10961 10963 10965 10966 10968 10970 10971 10973 10976 10978 10980 10980 10980 10981 10981 10982 10984 10984 10985 10986 10987 10988 10988 10989 10990 10992 10993 10993 10994 10995 10997 10998 10999 11001 11002 11002 11003 11002 11002 11004 11005 11005 11005 11005 11006 11006 11007
10914 10915 10916 10917 10917 10918 10918 10918 10918 10919 10919 10919 10920 10920 10921 10921 10922 10923 10924 10926 10927 10929 10931 10932 10934 10936 10937 10939 10941 10943 10944 10945 10946 10948 10949 10950 10952 10953 10954 10956 10957 10958 10960 10962 10964 10965 10967 10969 10971 10974 10975 10976 10977 10978 10980 10980 10980 10981 10983 10983 10984 10985 10986 10987 10988 10989 10990 10991 10991 10992 10993 10995 10997 10999 11001 11002 11002 11002 11002 11002 11003 11004 11004 11004 11005 11006 11006 11006
10909 10910 10911 10911 10912 10913 10913 10913 10913 10914 10914 10914 10915 10915 10916 10916 10917 10918 10919 10921 10922 10924 10926 10928 10929 10931 10933 10935 10937 10939 10940 10942 10943 10944 10946 10947 10949 10950 10951 10953 10954 10956 10957 10959 10961 10963 10964 10967 10969 10971 10972 10973 10974 10976 10978 10978 10979 10980 10981 10981 10982 10984 10985 10986 10988 10989 10989 10989 10990 10990 10992 10995 10997 10999 11000 11001 11001 11001 11000 11000 11001 11003 11004 11004 11005 11006 11006 11006
10904 10905 10905 10906 10907 10907 10908 10908 10908 10909 10909 10909 10910 10910 10911 10912 10912 10913 10914 10916 10918 10919 10921 10923 10925 10926 10928 10931 10933 10935 10936 10938 10939 10941 10942 10944 10945 10947 10948 10949 10951 10953 10955 10957 10959 10960 10962 10964 10966 10968 10969 10970 10972 10973 10975 10977 10978 10980 10980 10980 10981 10983 10984 10985 10986 10988 10988 10988 10988 10989 10991 10994 10997 10998 10999 11000 11001 11000 10998 10999 11000 11001 11003 11004 11005 11005 11005 11005
10899 10900 10900 10901 10902 10902 10903 10903 10903 10904 10904 10905 10905 10905 10906 10907 10908 10908 10909 10911 10913 10914 10916 10918 10920 10922 10924 10926 10928 10931 10932 10934 10935 10937 10939 10940 10942 10943 10945 10946 10948 10950 10952 10954 10956 10958 10960 10962 10964 10966 10967 10969 10971 10972 10974 10976 10978 10979 10978 10978 10980 10981 10982 10983 10985 10986 10987 10987 10988 10988 10989 10992 10995 10997 10997 10999 11000 10999 10997 10997 10998 11000 11002 11003 11004 11004 11004 11004
10894 10895 10895 10896 10897 10897 10898 10898 10898 10899 10899 10900 10900 10900 10901 10902 10903 10903 10904 10906 10908 10909 10911 10913 10915 10917 10919 10921 10924 10926 10927 10930 10931 10933 10935 10937 10938 10940 10941 10943 10945 10947 10949 10951 10954 10955 10957 10959 10961 10963 10965 10968 10971 10972 10973 10975 10976 10976 10974 10973 10975 10977 10978 10980 10983 10985 10986 10987 10987 10987 10988 10990 10993 10995 10996 10997 10997 10997 10996 10996 10998 10999 11001 11002 11003 11003 11003 11003
10889 10890 10890 10891 10892 10892 10893 10893 10893 10894 10895 10895 10895 10895 10896 10897 10897 10898 10899 10901 10902 10904 10906 10909 10910 10913 10914 10916 10919 10920 10922 10926 10928 10929 10931 10932 10934 10936 10938 10940 10942 10944 10946 10949 10951 10952 10954 10957 10958 10960 10963 10967 10970 10971 10972 10974 10975 10972 10969 10968 10970 10973 10975 10977 10980 10983 10984 10985 10986 10987 10988 10989 10992 10994 10995 10995 10996 10996 10996 10996 10997 10999 11000 11001 11001 11002 11002 11002
10884 10884 10885 10886 10886 10887 10887 10888 10888 10889 10890 10890 10890 10891 10891 10892 10892 10892 10894 10895 10897 10898 10901 10903 10906 10908 10910 10912 10914 10915 10918 10922 10923 10925 10927 10928 10930 10932 10934 10936 10938 10941 10944 10946 10947 10949 10951 10954 10956 10957 10961 10965 10968 10971 10972 10972 10972 10970 10968 10968 10969 10970 10973 10975 10977 10980 10981 10983 10985 10985 10987 10989 10991 10992 10993 10994 10994 10995 10996 10996 10996 10998 10998 10999 11000 11000 11001 11001
10879 10879 10880 10881 10881 10882 10882 10882 10883 10884 10885 10885 10885 10886 10887 10887 10887 10888 10888 10890 10891 10892 10895 10898 10901 10903 10905 10908 10909 10910 10914 10917 10919 10921 10922 10924 10926 10928 10930 10933 10935 10938 10941 10942 10944 10946 10948 10951 10954 10955 10959 10963 10966 10969 10968 10966 10967 10967 10967 10968 10968 10968 10970 10973 10974 10977 10979 10981 10983 10984 10985 10988 10990 10991 10993 10994 10994 10994 10995 10995 10996 10997 10997 10998 10999 10999 10999 11000
10874 10874 10875 10875 10876 10876 10877 10877 10878 10879 10880 10880 10880 10881 10882 10882 10882 10883 10883 10885 10885 10886 10889 10893 10895 10898 10901 10902 10903 10906 10909 10911 10914 10917 10918 10919 10921 10924 10926 10929 10931 10934 10937 10939 10941 10943 10945 10949 10951 10954 10957 10961 10964 10964 10962 10961 10963 10964 10965 10966 10967 10967 10968 10970 10972 10975 10977 10979 10982 10984 10985 10987 10989 10990 10993 10994 10993 10993 10994 10994 10995 10996 10997 10997 10997 10997 10998 10999
10869 10869 10870 10870 10871 10872 10872 10873 10874 10875 10875 10875 10876 10876 10877 10877 10877 10878 10878 10879 10880 10881 10884 10887 10890 10893 10895 10896 10898 10902 10904 10906 10909 10912 10913 10915 10917 10919 10922 10924 10927 10931 10934 10936 10938 10940 10943 10945 10948 10951 10953 10957 10961 10958 10956 10957 10959 10961 10962 10964 10965 10966 10967 10968 10970 10973 10976 10979 10981 10983 10984 10986 10988 10990 10992 10992 10991 10991 10993 10993 10994 10995 10996 10996 10996 10997 10998 10999
10864 10865 10865 10866 10867 10867 10868 10868 10869 10870 10871 10871 10872 10872 10872 10872 10873 10873 10873 10874 10875 10876 10879 10882 10885 10887 10890 10890 10894 10898 10898 10901 10904 10906 10908 10910 10913 10915 10917 10920 10923 10927 10930 10932 10934 10938 10940 10942 10945 10948 10950 10953 10954 10952 10952 10955 10957 10959 10961 10963 10965 10966 10967 10967 10968 10972 10975 10978 10979 10981 10984 10986 10987 10989 10990 10990 10990 10990 10991 10992 10993 10994 10995 10995 10995 10996 10998 10998
10860 10861 10861 10862 10863 10863 10864 10864 10865 10866 10867 10867 10868 10869 10868 10868 10868 10868 10868 10869 10869 10871 10873 10876 10879 10882 10885 10885 10888 10892 10893 10896 10899 10901 10904 10906 10908 10911 10913 10915 10918 10923 10927 10929 10931 10935 10937 10940 10942 10944 10947 10949 10949 10948 10951 10953 10955 10957 10959 10961 10963 10964 10965 10965 10967 10971 10974 10976 10978 10980 10983 10985 10986 10987 10988 10989 10989 10989 10990 10991 10992 10993 10994 10995 10995 10996 10997 10998
10856 10857 10858 10858 10859 10859 10860 10861 10861 10862 10863 10864 10865 10865 10864 10864 10863 10862 10862 10862 10864 10866 10868 10871 10874 10877 10879 10879 10884 10888 10890 10892 10894 10896 10899 10901 10904 10906 10908 10911 10914 10919 10923 10925 10928 10931 10934 10936 10938 10940 10943 10945 10946 10946 10948 10951 10953 10955 10957 10958 10960 10962 10963 10964 10966 10969 10972 10975 10977 10980 10982 10984 10985 10986 10987 10987 10988 10988 10989 10990 10992 10993 10994 10994 10995 10996 10996 10997
10852 10853 10854 10855 10855 10856 10857 10857 10858 10859 10860 10861 10861 10861 10860 10859 10857 10856 10856 10856 10858 10860 10862 10866 10868 10872 10874 10877 10881 10884 10885 10886 10888 10891 10894 10897 10900 10902 10904 10907 10911 10915 10918 10922 10925 10928 10929 10931 10933 10936 10939 10941 10942 10942 10946 10949 10951 10952 10954 10955 10957 10960 10961 10963 10965 10968 10971 10974 10976 10979 10981 10983 10984 10985 10985 10986 10987 10987 10988 10989 10990 10992 10993 10993 10994 10995 10995 10995
10849 10850 10851 10851 10852 10852 10853 10854 10855 10855 10856 10857 10857 10857 10856 10854 10852 10851 10850 10851 10852 10853 10858 10861 10863 10867 10871 10872 10876 10877 10878 10880 10883 10886 10889 10892 10895 10898 10900 10903 10907 10911 10915 10918 10921 10924 10926 10926 10928 10932 10935 10938 10939 10940 10945 10948 10949 10950 10951 10953 10956 10958 10960 10961 10964 10966 10969 10972 10975 10977 10980 10981 10983 10984 10984 10985 10986 10986 10987 10987 10989 10990 10991 10992 10993 10993 10994 10994
10846 10847 10847 10848 10849 10849 10850 10850 10851 10852 10853 10853 10853 10852 10851 10849 10848 10846 10845 10845 10846 10849 10853 10854 10857 10863 10865 10867 10871 10872 10872 10877 10881 10883 10885 10888 10891 10894 10896 10899 10904 10908 10912 10915 10917 10920 10921 10922 10924 10928 10932 10935 10936 10939 10944 10947 10947 10948 10948 10949 10953 10956 10957 10959 10962 10965 10968 10971 10973 10975 10977 10979 10980 10982 10983 10984 10984 10984 10985 10986 10987 10988 10989 10990 10991 10991 10992 10993
10843 10844 10844 10845 10846 10846 10846 10847 10848 10848 10849 10849 10849 10848 10846 10845 10843 10841 10840 10841 10842 10845 10846 10847 10852 10858 10861 10864 10866 10866 10869 10875 10877 10878 10881 10884 10887 10889 10891 10896 10901 10905 10909 10911 10912 10915 10917 10918 10920 10923 10927 10931 10933 10937 10942 10944 10945 10946 10945 10946 10950 10952 10954 10956 10960 10963 10966 10970 10972 10973 10975 10975 10976 10979 10982 10983 10983 10983 10983 10984 10985 10986 10988 10988 10989 10990 10991 10992
10840 10841 10841 10842 10843 10843 10843 10844 10844 10845 10845 10845 10844 10843 10843 10841 10839 10837 10837 10837 10838 10839 10840 10844 10849 10853 10856 10858 10859 10861 10867 10871 10871 10874 10877 10880 10883 10885 10888 10893 10897 10901 10905 10906 10908 10911 10913 10914 10917 10919 10922 10926 10932 10936 10938 10940 10941 10940 10940 10944 10948 10950 10952 10954 10957 10961 10964 10968 10970 10971 10972 10972 10973 10975 10978 10981 10981 10981 10982 10983 10983 10984 10986 10986 10987 10988 10989 10990
10837 10838 10838 10839 10839 10840 10840 10840 10841 10841 10841 10840 10840 10840 10839 10838 10836 10834 10833 10832 10833 10835 10837 10840 10844 10848 10850 10851 10855 10860 10864 10866 10868 10870 10872 10876 10879 10881 10885 10889 10892 10896 10900 10902 10904 10908 10909 10911 10914 10916 10919 10923 10928 10932 10934 10934 10935 10934 10936 10941 10945 10948 10950 10952 10955 10958 10962 10964 10966 10968 10969 10970 10972 10974 10976 10978 10979 10980 10980 10980 10980 10981 10983 10984 10986 10987 10988 10989
10834 10834 10835 10835 10836 10836 10836 10837 10837 10837 10837 10837 10836 10836 10835 10834 10833 10831 10829 10829 10830 10831 10833 10836 10840 10844 10845 10848 10853 10857 10858 10861 10864 10866 10869 10872 10875 10878 10882 10885 10888 10892 10895 10897 10901 10904 10905 10907 10910 10912 10916 10919 10923 10926 10928 10929 10930 10931 10934 10938 10942 10945 10948 10951 10953 10956 10959 10961 10962 10965 10967 10968 10970 10972 10974 10975 10976 10978 10979 10979 10977 10978 10980 10982 10983 10985 10986 10988
10830 10831 10831 10832 10832 10832 10832 10832 10833 10833 10833 10833 10833 10833 10832 10831 10830 10828 10827 10826 10827 10828 10830 10833 10837 10839 10841 10845 10849 10850 10854 10858 10860 10863 10866 10868 10870 10874 10877 10881 10885 10888 10891 10893 10897 10900 10901 10903 10906 10909 10912 10915 10919 10922 10924 10925 10927 10930 10932 10935 10939 10943 10947 10949 10951 10953 10956 10959 10961 10963 10965 10967 10969 10971 10972 10973 10975 10976 10978 10977 10975 10976 10979 10980 10982 10983 10984 10986
10827 10827 10828 10828 10828 10828 10828 10828 10828 10829 10829 10829 10829 10829 10828 10828 10827 10826 10824 10824 10825 10826 10828 10830 10832 10835 10837 10840 10843 10847 10851 10854 10856 10860 10861 10863 10867 10870 10873 10877 10882 10885 10887 10890 10893 10896 10898 10899 10902 10905 10908 10912 10916 10918 10919 10922 10925 10926 10929 10933 10937 10940 10943 10945 10947 10951 10954 10957 10959 10961 10964 10966 10967 10969 10971 10972 10973 10974 10976 10976 10976 10977 10979 10980 10981 10982 10982 10984
10823 10823 10823 10823 10824 10824 10824 10824 10824 10824 10824 10825 10825 10825 10825 10825 10825 10824 10823 10822 10823 10824 10825 10827 10829 10831 10833 10836 10840 10845 10848 10850 10854 10857 10858 10860 10863 10866 10870 10874 10878 10880 10883 10887 10891 10892 10893 10896 10898 10902 10905 10908 10912 10914 10915 10918 10920 10923 10926 10931 10935 10938 10940 10941 10945 10950 10952 10954 10957 10960 10961 10963 10964 10966 10968 10970 10971 10972 10973 10975 10976 10978 10978 10979 10980 10980 10980 10981
10818 10819 10819 10819 10819 10819 10819 10819 10819 10819 10820 10820 10821 10821 10822 10822 10822 10822 10821 10821 10820 10821 10822 10824 10826 10827 10830 10834 10837 10840 10843 10847 10850 10851 10852 10856 10860 10862 10866 10870 10873 10877 10881 10884 10887 10888 10890 10892 10895 10898 10902 10905 10908 10910 10911 10913 10917 10921 10925 10929 10933 10935 10937 10940 10944 10947 10948 10951 10954 10956 10958 10960 10961 10963 10965 10967 10969 10970 10971 10973 10974 10976 10977 10977 10977 10978 10979 10980
10813 10814 10814 10814 10814 10814 10814 10814 10814 10815 10815 10816 10817 10817 10818 10818 10819 10819 10819 10818 10818 10819 10820 10822 10823 10825 10828 10831 10832 10836 10840 10843 10844 10846 10849 10854 10857 10859 10862 10865 10869 10873 10877 10881 10883 10885 10887 10889 10892 10895 10897 10900 10903 10905 10907 10910 10915 10919 10922 10926 10930 10932 10936 10939 10942 10944 10944 10947 10950 10953 10956 10957 10958 10959 10962 10964 10966 10967 10969 10971 10971 10972 10974 10975 10975 10976 10977 10977
10808 10809 10809 10809 10809 10809 10809 10809 10809 10810 10811 10811 10812 10813 10814 10815 10815 10817 10817 10816 10816 10817 10819 10819 10821 10823 10825 10826 10828 10833 10836 10837 10840 10844 10847 10850 10852 10853 10857 10860 10864 10869 10873 10876 10879 10881 10882 10885 10889 10890 10893 10896 10899 10900 10903 10908 10912 10915 10919 10923 10926 10929 10934 10938 10940 10941 10942 10944 10948 10951 10953 10954 10955 10957 10959 10961 10963 10966 10967 10968 10968 10969 10971 10972 10973 10974 10975 10976
10803 10803 10804 10804 10803 10803 10804 10804 10804 10805 10806 10807 10807 10808 10810 10810 10812 10814 10814 10813 10814 10815 10816 10817 10818 10819 10821 10823 10826 10829 10830 10833 10837 10839 10841 10845 10847 10850 10853 10856 10860 10865 10869 10872 10874 10876 10878 10882 10884 10886 10889 10893 10894 10896 10901 10905 10909 10912 10916 10920 10923 10927 10932 10935 10938 10939 10941 10943 10946 10948 10950 10951 10952 10955 10957 10959 10961 10963 10964 10964 10965 10967 10968 10969 10971 10972 10973 10974
10799 10799 10799 10799 10798 10798 10798 10799 10799 10800 10801 10802 10802 10803 10805 10806 10809 10810 10809 10810 10812 10813 10813 10814 10815 10816 10819 10821 10823 10825 10827 10830 10833 10834 10837 10841 10844 10846 10849 10852 10855 10860 10864 10867 10870 10872 10876 10879 10880 10882 10886 10887 10889 10894 10899 10902 10906 10910 10914 10918 10921 10925 10928 10932 10936 10937 10939 10941 10943 10945 10947 10949 10950 10953 10956 10957 10958 10959 10960 10961 10962 10964 10966 10967 10969 10971 10971 10972
10795 10795 10795 10795 10794 10794 10793 10794 10794 10795 10796 10797 10798 10799 10800 10802 10805 10806 10806 10808 10809 10809 10809 10811 10812 10814 10816 10818 10820 10822 10824 10827 10829 10830 10834 10838 10840 10842 10845 10848 10852 10856 10860 10863 10866 10870 10872 10875 10877 10880 10882 10884 10888 10892 10895 10900 10905 10909 10912 10916 10919 10921 10924 10928 10932 10934 10936 10938 10941 10943 10944 10946 10948 10951 10953 10954 10955 10957 10958 10959 10961 10963 10964 10966 10968 10969 10969 10970
10792 10791 10791 10791 10790 10789 10789 10789 10790 10790 10791 10792 10793 10794 10796 10797 10800 10801 10802 10804 10805 10805 10807 10808 10809 10812 10813 10816 10818 10819 10821 10823 10824 10826 10830 10834 10836 10839 10841 10844 10848 10851 10855 10860 10864 10866 10869 10872 10874 10877 10880 10884 10887 10890 10895 10900 10903 10906 10909 10913 10915 10918 10921 10924 10926 10929 10932 10935 10938 10940 10941 10942 10944 10946 10948 10950 10952 10955 10956 10958 10959 10961 10962 10963 10965 10966 10967 10967
10789 10788 10787 10787 10786 10785 10785 10785 10785 10786 10787 10788 10789 10790 10791 10793 10796 10797 10798 10799 10801 10803 10804 10805 10806 10808 10810 10813 10815 10816 10818 10820 10821 10824 10827 10830 10832 10835 10837 10840 10843 10846 10851 10856 10858 10861 10865 10866 10869 10874 10878 10881 10884 10888 10894 10897 10899 10903 10907 10910 10913 10916 10919 10921 10923 10925 10929 10931 10934 10936 10936 10937 10940 10943 10944 10946 10949 10952 10953 10955 10957 10958 10959 10961 10962 10964 10964 10965
10786 10785 10784 10783 10782 10781 10781 10781 10781 10781 10782 10784 10785 10786 10787 10790 10792 10792 10794 10796 10799 10800 10801 10802 10804 10806 10808 10810 10811 10812 10815 10817 10819 10822 10824 10827 10829 10831 10834 10837 10839 10842 10847 10851 10853 10857 10859 10860 10865 10871 10874 10876 10879 10885 10890 10892 10895 10900 10904 10908 10911 10913 10916 10918 10919 10922 10926 10928 10930 10932 10932 10933 10937 10940 10942 10944 10946 10948 10949 10951 10954 10957 10958 10958 10959 10961 10962 10962
10783 10782 10780 10779 10778 10777 10776 10776 10776 10777 10778 10779 10780 10782 10784 10785 10787 10788 10790 10793 10795 10796 10798 10800 10801 10803 10805 10807 10808 10810 10812 10814 10816 10819 10821 10823 10825 10828 10830 10833 10836 10839 10842 10846 10849 10852 10854 10856 10863 10869 10870 10873 10877 10882 10885 10888 10893 10897 10901 10903 10904 10908 10913 10915 10917 10920 10923 10925 10927 10929 10929 10930 10934 10936 10938 10941 10943 10945 10946 10947 10950 10954 10955 10955 10956 10958 10959 10959
10780 10778 10777 10775 10773 10772 10772 10771 10771 10772 10773 10774 10776 10777 10779 10780 10782 10784 10786 10788 10790 10793 10795 10797 10798 10800 10803 10804 10805 10807 10810 10811 10813 10816 10818 10820 10822 10825 10827 10829 10832 10835 10838 10841 10845 10849 10851 10855 10861 10865 10867 10871 10876 10879 10882 10886 10890 10894 10896 10898 10900 10906 10910 10912 10915 10918 10920 10922 10925 10926 10925 10926 10930 10932 10935 10938 10940 10942 10943 10943 10945 10949 10950 10952 10954 10955 10955 10957
10778 10776 10774 10772 10770 10768 10767 10767 10767 10767 10768 10769 10771 10772 10774 10776 10778 10780 10782 10784 10787 10789 10791 10793 10795 10797 10798 10800 10802 10805 10807 10809 10811 10814 10816 10818 10820 10823 10826 10828 10830 10833 10836 10839 10842 10846 10849 10853 10858 10861 10864 10869 10874 10877 10880 10883 10886 10889 10892 10894 10899 10903 10905 10907 10911 10914 10917 10919 10920 10921 10921 10923 10926 10929 10932 10936 10938 10939 10941 10941 10942 10944 10946 10948 10950 10951 10953 10956
10776 10774 10771 10769 10767 10765 10763 10763 10762 10763 10763 10765 10766 10768 10770 10772 10774 10776 10778 10780 10783 10785 10787 10789 10791 10793 10795 10798 10800 10802 10804 10807 10809 10812 10814 10817 10820 10823 10824 10827 10829 10832 10835 10838 10841 10845 10847 10850 10855 10857 10861 10867 10870 10872 10875 10878 10882 10886 10889 10892 10897 10899 10902 10904 10907 10910 10913 10915 10917 10918 10919 10920 10923 10925 10929 10933 10935 10937 10939 10940 10941 10941 10942 10944 10947 10948 10950 10953
10774 10772 10769 10767 10765 10762 10761 10759 10759 10759 10759 10761 10762 10764 10766 10767 10770 10772 10774 10776 10779 10781 10784 10786 10788 10790 10792 10794 10797 10798 10802 10804 10806 10809 10813 10815 10817 10819 10821 10825 10827 10830 10834 10837 10841 10844 10846 10848 10852 10855 10859 10863 10864 10866 10869 10872 10877 10881 10885 10889 10893 10896 10899 10902 10904 10906 10909 10911 10914 10916 10917 10917 10919 10923 10926 10929 10932 10935 10937 10939 10940 10940 10941 10943 10945 10946 10948 10950
10772 10770 10768 10766 10763 10761 10759 10757 10756 10756 10756 10757 10758 10760 10761 10763 10765 10767 10769 10772 10775 10777 10780 10782 10784 10786 10789 10791 10794 10796 10799 10801 10803 10807 10810 10812 10814 10817 10821 10825 10826 10829 10833 10836 10839 10842 10843 10845 10850 10854 10856 10858 10860 10863 10865 10868 10872 10876 10880 10884 10888 10891 10895 10897 10900 10904 10906 10908 10910 10913 10915 10915 10917 10921 10924 10927 10930 10932 10933 10935 10938 10938 10939 10941 10943 10945 10946 10947
10770 10768 10766 10764 10762 10760 10757 10756 10754 10753 10753 10754 10755 10756 10758 10759 10761 10763 10765 10768 10770 10773 10776 10778 10780 10783 10786 10788 10790 10793 10796 10798 10801 10804 10806 10808 10811 10815 10820 10823 10823 10826 10829 10832 10835 10838 10840 10843 10847 10851 10852 10854 10858 10861 10863 10866 10870 10872 10875 10879 10882 10886 10890 10892 10896 10899 10902 10905 10907 10910 10912 10912 10914 10918 10921 10925 10929 10930 10931 10932 10933 10936 10938 10939 10940 10943 10944 10944
10769 10767 10765 10763 10761 10759 10757 10755 10753 10752 10751 10751 10752 10753 10754 10755 10757 10759 10761 10763 10766 10769 10771 10774 10777 10780 10782 10784 10787 10790 10792 10794 10797 10800 10803 10805 10808 10813 10818 10818 10819 10822 10824 10827 10831 10834 10836 10838 10842 10846 10849 10851 10854 10855 10858 10862 10865 10869 10872 10876 10878 10881 10884 10887 10891 10894 10897 10900 10903 10906 10909 10909 10911 10915 10919 10923 10927 10929 10931 10929 10928 10933 10937 10935 10936 10940 10941 10941
10768 10766 10763 10761 10760 10758 10756 10754 10752 10751 10750 10750 10750 10750 10751 10752 10753 10755 10757 10759 10762 10764 10767 10770 10773 10776 10779 10781 10784 10786 10788 10791 10793 10796 10799 10801 10804 10810 10813 10812 10814 10817 10820 10823 10827 10831 10833 10835 10839 10843 10845 10847 10849 10850 10853 10856 10859 10862 10866 10870 10873 10876 10879 10883 10887 10890 10893 10896 10898 10903 10906 10907 10909 10913 10917 10921 10923 10927 10929 10926 10926 10931 10932 10932 10935 10937 10936 10938
10766 10764 10762 10760 10758 10757 10755 10753 10751 10750 10749 10749 10748 10748 10748 10749 10749 10751 10753 10755 10757 10760 10763 10766 10769 10772 10775 10778 10780 10783 10785 10787 10790 10792 10795 10797 10800 10805 10807 10806 10809 10813 10817 10820 10824 10827 10830 10832 10835 10839 10841 10843 10845 10847 10850 10854 10855 10857 10859 10863 10868 10871 10874 10879 10883 10886 10889 10891 10895 10900 10903 10902 10905 10910 10915 10917 10919 10922 10924 10925 10927 10929 10928 10931 10935 10936 10934 10935
10764 10763 10761 10759 10757 10755 10753 10752 10750 10749 10748 10747 10746 10745 10745 10745 10746 10747 10749 10751 10754 10756 10759 10761 10765 10768 10771 10773 10776 10779 10781 10783 10786 10788 10791 10793 10796 10799 10800 10801 10806 10810 10812 10815 10818 10822 10824 10826 10830 10833 10835 10838 10840 10843 10847 10850 10851 10852 10855 10859 10863 10866 10870 10874 10878 10880 10884 10887 10892 10895 10896 10896 10901 10907 10911 10913 10914 10916 10920 10923 10925 10927 10928 10931 10934 10935 10935 10934
10762 10760 10759 10757 10755 10754 10752 10750 10749 10747 10746 10745 10744 10743 10742 10743 10743 10744 10746 10748 10749 10752 10755 10758 10761 10764 10766 10770 10773 10775 10777 10779 10782 10785 10787 10789 10791 10793 10795 10798 10802 10805 10806 10809 10813 10816 10818 10821 10825 10828 10831 10833 10835 10839 10842 10845 10848 10850 10853 10857 10860 10863 10865 10870 10873 10875 10879 10883 10886 10888 10890 10892 10898 10903 10906 10908 10909 10911 10915 10918 10919 10922 10927 10929 10930 10932 10934 10932
10759 10758 10756 10755 10753 10752 10751 10749 10747 10746 10744 10743 10742 10741 10740 10740 10741 10741 10742 10744 10746 10748 10751 10753 10756 10760 10762 10766 10768 10770 10773 10777 10780 10782 10784 10786 10788 10789 10791 10794 10797 10799 10801 10805 10809 10811 10813 10816 10819 10823 10825 10828 10832 10836 10838 10841 10844 10847 10851 10854 10857 10860 10863 10866 10869 10871 10875 10879 10881 10885 10887 10889 10894 10898 10901 10904 10906 10907 10911 10913 10914 10918 10922 10925 10926 10928 10930 10931
10756 10755 10753 10752 10751 10749 10748 10747 10746 10744 10743 10741 10740 10739 10739 10738 10738 10739 10739 10740 10742 10745 10746 10749 10753 10755 10758 10761 10764 10767 10770 10774 10777 10779 10781 10783 10785 10787 10788 10790 10793 10795 10798 10801 10804 10806 10808 10811 10814 10817 10820 10824 10828 10831 10834 10837 10840 10842 10845 10848 10851 10856 10859 10862 10865 10869 10872 10875 10878 10880 10881 10884 10888 10892 10896 10899 10902 10903 10906 10909 10911 10914 10918 10922 10923 10924 10925 10927
10753 10752 10750 10749 10747 10746 10745 10744 10743 10742 10741 10740 10738 10737 10737 10736 10736 10736 10736 10737 10739 10741 10743 10746 10748 10749 10753 10757 10760 10763 10766 10770 10772 10775 10777 10779 10782 10783 10785 10787 10789 10792 10794 10797 10800 10802 10805 10808 10810 10813 10816 10820 10823 10826 10828 10831 10834 10837 10839 10842 10846 10850 10853 10856 10860 10863 10866 10870 10872 10874 10876 10879 10882 10886 10890 10894 10896 10898 10902 10905 10908 10911 10915 10917 10918 10919 10920 10921
10750 10748 10747 10745 10744 10743 10742 10741 10740 10740 10739 10738 10737 10735 10735 10734 10734 10733 10734 10734 10735 10737 10740 10741 10742 10745 10749 10753 10756 10759 10762 10765 10769 10771 10773 10775 10777 10779 10781 10783 10786 10788 10791 10794 10797 10799 10802 10804 10806 10808 10812 10815 10818 10820 10822 10825 10829 10832 10835 10838 10841 10845 10848 10851 10855 10858 10861 10864 10866 10868 10871 10874 10877 10880 10885 10889 10893 10896 10899 10901 10904 10907 10910 10912 10913 10914 10916 10917